World > North America > United States > Mississippi > Linn  

Linn, MS Hourly Weather Updates

Feedback E-mail the Weather

Quick Clicks

Linn, MS Weather Maps

°F °C°F °C
Linn Weather Map
UTC Time: 4/23/2024, 18:26
Your Time:

Linn, MS Regional Weather

Expires:202404231900;;249615
ASUS44 KJAN 231810
RWRMS 

MISSISSIPPI HOURLY WEATHER ROUNDUP
NATIONAL WEATHER SERVICE JACKSON MS
100 PM CDT TUE APR 23 2024

NOTE: "FAIR: INDICATES FEW OR NO CLOUDS BELOW 12,000 FEET WITH NO
SIGNIFICANT WEATHER AND/OR OBSTRUCTIONS TO VISIBILITY.


MSZ001>002-007>008-010>013-018>021-025>028-034>036-231900-
NORTHWEST MISSISSIPPI
  
CITY           SKY/WX    TMP DP  RH WIND       PRES   REMARKS
CLARKSDALE       N/A     73 N/A N/A S13G21    30.11F                  
GREENWOOD      SUNNY     72  46  39 S13G22    30.14F                  
6HR MIN TEMP:  46; 6HR MAX TEMP:  72;                                

GREENVILLE     SUNNY     73  49  42 S16       30.12F                  
6HR MIN TEMP:  51; 6HR MAX TEMP:  73;                                

OLIVE BRANCH   SUNNY     72  43  35 S16G26    30.09F                  
OXFORD         SUNNY     70  41  35 SW8G21    30.13F                  
TUNICA         SUNNY     72  47  41 S17G24    30.09F                  
$$


SKY/WX - Weather  TMP - Temperature  DP - Dew Point  RH - Humidity
WIND - Wind Direction/Speed PRES - Barometric Pressure VSB - Visibility
WCI - Wind Chill Index E13G22 Wind - East Wind 13 mph/Gusts of 22 mph

Trending Headlines

Trending Entertainment Headlines

Linn Radar Loop

Use the map search tool if you want to place a location marker on the radar map...

Linn Quick Facts

National Two Day Weather Forecast


E-mail the Linn Weather Forecast

Voice your opinion or tell us about page issues...